SQ5GN-1 Weather Reports


Display with metric or nautical units.
time (UTC)temp
F
wind
direction
speed
MPH
gust
MPH
rain 1hr
in
rain 24hr
in
rain mn
in
humidity
%
barometer
mb
20260508061947 54 0.0 0.0 0.00 0.00 0.00 100 1018.0
20260508055141 53 0.0 0.0 0.00 0.00 0.00 100 1018.0
20260508052453 53 0.0 0.0 0.00 0.00 0.00 100 1017.0
20260508045742 53 0.0 0.0 0.00 0.00 0.00 100 1017.0
20260508043144 53 0.0 0.0 0.00 0.00 0.00 100 1017.0
20260508040552 53 0.0 0.0 0.00 0.00 0.00 100 1017.0
20260508033851 53 0.0 0.0 0.00 0.00 0.00 100 1017.0
20260508031337 53 0.0 0.0 0.00 0.00 0.00 100 1017.0
20260508024822 53 0.0 0.0 0.00 0.00 0.00 100 1017.0
20260508021852 53 0.0 0.0 0.00 0.00 0.00 100 1017.0
20260508015312 53 0.0 0.0 0.00 0.00 0.00 100 1017.0
20260508012847 53 0.0 0.0 0.00 0.00 0.00 100 1017.0
20260508005942 53 0.0 0.0 0.00 0.00 0.00 100 1017.0
20260508003342 54 0.0 0.0 0.00 0.00 0.00 100 1017.0
20260508000727 54 0.0 0.0 0.00 0.00 0.00 100 1017.0
20260507234147 55 0.0 0.0 0.00 0.00 0.00 100 1017.0
20260507231512 54 0.0 0.0 0.00 0.00 0.00 100 1017.0
20260507224607 54 0.0 0.0 0.00 0.00 0.00 100 1016.0
20260507221812 55 0.0 0.0 0.00 0.00 0.00 100 1016.0
20260507215342 55 0.0 0.0 0.00 0.00 0.00 100 1016.0
20260507212527 56 0.0 0.0 0.00 0.00 0.00 100 1016.0
20260507205842 56 0.0 0.0 0.00 0.00 0.00 100 1016.0
20260507202957 57 0.0 0.0 0.00 0.00 0.00 100 1016.0
20260507200242 57 0.0 0.0 0.00 0.00 0.00 100 1016.0
20260507193327 57 0.0 0.0 0.00 0.00 0.00 100 1016.0
20260507190602 57 0.0 0.0 0.00 0.00 0.00 100 1015.0
20260507183747 58 0.0 0.0 0.00 0.00 0.00 100 1015.0
20260507180822 58 0.0 0.0 0.00 0.00 0.00 100 1015.0
20260507174144 58 0.0 0.0 0.00 0.00 0.00 100 1014.0
20260507171522 59 0.0 0.0 0.00 0.00 0.00 100 1014.0
20260507164627 60 0.0 0.0 0.00 0.00 0.00 100 1013.0
20260507161812 61 0.0 0.0 0.00 0.00 0.00 100 1013.0
20260507155349 61 0.0 0.0 0.00 0.00 0.00 100 1014.0
20260507152914 62 0.0 0.0 0.00 0.00 0.00 96 1014.0
20260507150502 63 0.0 0.0 0.00 0.00 0.00 92 1014.0
20260507144052 64 0.0 0.0 0.00 0.00 0.00 95 1013.0
20260507141602 64 0.0 0.0 0.00 0.00 0.00 93 1013.0
20260507134957 64 0.0 0.0 0.00 0.00 0.00 98 1013.0
20260507132320 63 0.0 0.0 0.00 0.00 0.00 100 1013.0
20260507125432 66 0.0 0.0 0.00 0.00 0.00 95 1013.0
20260507122839 65 0.0 0.0 0.00 0.00 0.00 99 1013.0
20260507120402 67 0.0 0.0 0.00 0.00 0.00 93 1013.0
20260507113600 65 0.0 0.0 0.00 0.00 0.00 100 1013.0
20260507111202 63 0.0 0.0 0.00 0.00 0.00 100 1013.0
20260507104537 62 0.0 0.0 0.00 0.00 0.00 100 1012.0
20260507101807 63 0.0 0.0 0.00 0.00 0.00 100 1012.0
20260507095128 66 0.0 0.0 0.00 0.00 0.00 100 1012.0
20260507092450 66 0.0 0.0 0.00 0.00 0.00 100 1011.0
20260507085949 67 0.0 0.0 0.00 0.00 0.00 100 1011.0
20260507083134 67 0.0 0.0 0.00 0.00 0.00 100 1010.0
20260507080732 68 0.0 0.0 0.00 0.00 0.00 100 1010.0
20260507073836 68 0.0 0.0 0.00 0.00 0.00 100 1010.0
20260507071257 66 0.0 0.0 0.00 0.00 0.00 100 1010.0
20260507064752 66 0.0 0.0 0.00 0.00 0.00 100 1009.0